Weather History for Chillicothe, MO

Change the Weather History Date:

Sunday, December 23, 2012

  Actual Average (KIRK) Record (KIRK)
Temperature  
Mean Temperature 24 °F 27 °F  
Max Temperature 30 °F 35 °F 64 °F (1933)
Min Temperature 19 °F 19 °F -22 °F (1989)
Degree Days  
Heating Degree Days 40 38  
Month to date heating degree days 815  
Since 1 July heating degree days 2036  
Cooling Degree Days 0 0  
Month to date cooling degree days 0  
Year to date cooling degree days 939  
Moisture  
Dew Point 20 °F    
Average Humidity 80    
Maximum Humidity 96    
Minimum Humidity 67    
Precipitation  
Precipitation 0.00 in 0.07 in 1.22 in (1941)
Month to date precipitation 1.41  
Year to date precipitation 38.97  
Sea Level Pressure  
Sea Level Pressure 30.02 in    
Wind  
Wind Speed 4 mph (North)    
Max Wind Speed 7 mph    
Max Gust Speed -    
T = Trace of Precipitation, MM = Missing Value Source: NWS Daily Summary

Daily Weather History Graph

Daily Weather History Graph

Search for Another Location

Airport:

Trip Planner

Search our weather history database for the weather conditions in past years. The results will help you decide how hot, cold, wet, or windy it might be!

Date:

Astronomy

Dec. 23, 2012 Rise Set
Actual Time 7:33 AM CST 4:54 PM CST
Civil Twilight 7:02 AM CST 5:24 PM CST
Nautical Twilight 6:28 AM CST 5:58 PM CST
Astronomical Twilight 5:55 AM CST 6:31 PM CST
Moon 1:45 PM CST (12/23) 3:16 AM CST (12/23)
Length of Visible Light 10h 21m
Length of Day
9h 20m
Waxing Gibbous, 82% of the Moon is Illuminated
Dec 23
Waxing Gibbous
Dec 28
Full
Jan 4
Last Quarter
Jan 11
New
Jan 18
First Quarter

Hourly Weather History & Observations

Time (CST) Temp. Windchill Dew Point Humidity Pressure Visibility Wind Dir Wind Speed Gust Speed Precip Events Conditions
12:52 AM 24.1 °F - 21.9 °F 91% 29.99 in - Calm Calm - N/A   Unknown
1:52 AM 21.9 °F - 21.0 °F 96% 30.01 in - Calm Calm - N/A   Unknown
2:52 AM 24.1 °F 17.0 °F 21.9 °F 91% 30.01 in - North 5.8 mph - N/A   Unknown
3:52 AM 23.0 °F 15.8 °F 21.0 °F 92% 30.01 in - North 5.8 mph - N/A   Unknown
4:52 AM 23.0 °F 15.8 °F 21.0 °F 92% 30.01 in - North 5.8 mph - N/A   Unknown
5:52 AM 21.0 °F 14.6 °F 19.0 °F 92% 30.02 in - North 4.6 mph - N/A   Unknown
6:52 AM 21.0 °F 13.4 °F 18.0 °F 88% 30.05 in - North 5.8 mph - N/A   Unknown
7:52 AM 19.0 °F 11.1 °F 17.1 °F 92% 30.06 in - North 5.8 mph - N/A   Unknown
8:52 AM 21.0 °F 13.4 °F 17.1 °F 85% 30.08 in - North 5.8 mph - N/A   Unknown
9:52 AM 23.0 °F 14.7 °F 17.1 °F 78% 30.08 in - NNE 6.9 mph - N/A   Unknown
10:52 AM 26.1 °F 18.4 °F 18.0 °F 71% 30.07 in - NNE 6.9 mph - N/A   Unknown
11:52 AM 28.0 °F 22.8 °F 19.9 °F 72% 30.04 in - North 4.6 mph - N/A   Unknown
12:52 PM 30.9 °F 26.2 °F 21.0 °F 67% 29.99 in - Variable 4.6 mph - N/A   Unknown
1:52 PM 30.9 °F 25.2 °F 21.9 °F 69% 29.99 in - NNW 5.8 mph - N/A   Unknown
2:52 PM 30.9 °F 24.3 °F 21.0 °F 67% 29.99 in - North 6.9 mph - N/A   Unknown
3:52 PM 30.9 °F 26.2 °F 21.0 °F 67% 30.00 in - North 4.6 mph - N/A   Unknown
4:52 PM 28.9 °F 23.9 °F 21.0 °F 72% 30.00 in - NNW 4.6 mph - N/A   Unknown
5:52 PM 28.0 °F 22.8 °F 21.0 °F 75% 29.99 in - North 4.6 mph - N/A   Unknown
6:52 PM 28.0 °F 24.2 °F 19.9 °F 72% 30.01 in - NNW 3.5 mph - N/A   Unknown
7:52 PM 27.0 °F 20.5 °F 21.0 °F 78% 30.00 in - North 5.8 mph - N/A   Unknown
8:52 PM 27.0 °F 21.6 °F 21.0 °F 78% 30.02 in - North 4.6 mph - N/A   Unknown
9:52 PM 26.1 °F 21.9 °F 21.0 °F 81% 30.02 in - North 3.5 mph - N/A   Unknown
10:52 PM 26.1 °F 21.9 °F 18.0 °F 71% 30.02 in - North 3.5 mph - N/A   Unknown
11:52 PM 25.0 °F 18.1 °F 19.9 °F 81% 30.01 in - NNW 5.8 mph - N/A   Unknown